Terminal Aerodrome Forecast
Issued by NWS

Home | Current Version | Previous Version | Text Only | Print | Product List | Glossary On
Versions: 1 2 3 4 5 6 7 8 9 10 11 12 13 14 15 16 17 18 19 20 21 22 23 24 25 26 27 28 29 30 31 32 33 34 35 36 37 38 39 40 41 42
000
FTUS44 KHGX 310520
TAFLBX
TAF
KLBX 310520Z 3106/0106 15006KT P6SM SCT250
     FM310800 15002KT P6SM SCT015 SCT150
     FM311500 20006KT P6SM SCT025 SCT150
     FM312200 18008KT P6SM VCTS BKN050CB
     FM010200 21005KT P6SM VCTS SCT015 BKN050CB=

USA.gov is the U.S. government's official web portal to all federal, state and local government web resources and services.